﻿_id,日時,平均風速(m/s),平均風向,最大瞬間風速(m/s),最大風速時風向,気温(℃),湿度(%),10分間移動積算雨量(mm),1時間移動積算雨量(mm),日雨量(mm),累計雨量(mm)
1,2021-12-27T00:00:00,0,静穏,0,西北西,-1.4,95.1,0.5,1.5,14.5,14.5
2,2021-12-27T00:01:00,0,静穏,0,西北西,-1.4,95,0.5,1.5,0,14.5
3,2021-12-27T00:02:00,0,静穏,0,西北西,-1.3,95,0,1.5,0,14.5
4,2021-12-27T00:03:00,0,静穏,0,西北西,-1.3,95,0,1.5,0,14.5
5,2021-12-27T00:04:00,0.4,西南西,5.6,西,-1.3,95,0,1.5,0,14.5
6,2021-12-27T00:05:00,0.7,西南西,5.6,西,-1.4,94.9,0,1.5,0,14.5
7,2021-12-27T00:06:00,1,西,5.6,西,-1.4,94.9,0,1.5,0,14.5
8,2021-12-27T00:07:00,1.3,西,5.6,西,-1.4,94.8,0,1.5,0,14.5
9,2021-12-27T00:08:00,1.6,西,5.6,西,-1.4,94.8,0,1.5,0,14.5
10,2021-12-27T00:09:00,1.8,西,5.6,西,-1.4,94.9,0,1.5,0,14.5
11,2021-12-27T00:10:00,2,西北西,5.6,西,-1.4,94.9,0.5,2,0.5,15
12,2021-12-27T00:11:00,2.2,西北西,5.6,西,-1.4,94.8,0.5,2,0.5,15
13,2021-12-27T00:12:00,2.4,西北西,5.6,西,-1.4,94.8,0.5,2,0.5,15
14,2021-12-27T00:13:00,2.7,西北西,5.6,西,-1.4,94.7,0.5,1.5,0.5,15
15,2021-12-27T00:14:00,2.5,西北西,5,西北西,-1.3,94.8,0.5,1.5,0.5,15
16,2021-12-27T00:15:00,2.5,西北西,4.6,西北西,-1.3,94.8,0.5,1.5,0.5,15
17,2021-12-27T00:16:00,2.4,西北西,5.3,西北西,-1.3,94.7,0.5,1.5,0.5,15
18,2021-12-27T00:17:00,2.4,西北西,5.3,西北西,-1.3,94.6,0.5,1.5,0.5,15
19,2021-12-27T00:18:00,2.5,西北西,5.3,西北西,-1.3,94.6,0.5,1.5,0.5,15
20,2021-12-27T00:19:00,2.5,西北西,5.3,西北西,-1.2,94.5,0.5,1.5,0.5,15
21,2021-12-27T00:20:00,2.6,西北西,5.3,西北西,-1.3,94.2,0,1.5,0.5,15
22,2021-12-27T00:21:00,2.7,西北西,5.3,西北西,-1.3,93.9,0,1.5,0.5,15
23,2021-12-27T00:22:00,2.7,西北西,5.3,西北西,-1.3,93.6,0,1.5,0.5,15
24,2021-12-27T00:23:00,2.6,西北西,5.3,西北西,-1.3,93.3,0,1.5,0.5,15
25,2021-12-27T00:24:00,2.5,西北西,5.3,西北西,-1.4,93,0,1.5,0.5,15
26,2021-12-27T00:25:00,2.4,西北西,5.3,西北西,-1.4,92.7,0,1.5,0.5,15
27,2021-12-27T00:26:00,2.2,西北西,4.1,北西,-1.4,92.4,0,1.5,0.5,15
28,2021-12-27T00:27:00,2,西北西,4.1,北西,-1.5,92.2,0,1.5,0.5,15
29,2021-12-27T00:28:00,1.9,西北西,3.5,北西,-1.5,92,0,1.5,0.5,15
30,2021-12-27T00:29:00,1.8,西北西,3.3,北西,-1.5,91.9,0,1.5,0.5,15
31,2021-12-27T00:30:00,1.8,西北西,3.2,北西,-1.5,91.7,0,1.5,0.5,15
32,2021-12-27T00:31:00,1.7,西北西,3.3,西北西,-1.5,91.7,0,1,0.5,15
33,2021-12-27T00:32:00,1.8,西北西,4,西,-1.5,91.6,0,1,0.5,15
34,2021-12-27T00:33:00,1.8,西北西,4,西,-1.4,91.6,0,1,0.5,15
35,2021-12-27T00:34:00,1.9,西北西,4,西,-1.5,91.6,0,1,0.5,15
36,2021-12-27T00:35:00,2,西北西,4,西,-1.5,91.4,0,1,0.5,15
37,2021-12-27T00:36:00,2.1,西北西,4,西,-1.5,91.3,0,1,0.5,15
38,2021-12-27T00:37:00,2.1,西北西,4,西,-1.5,91.2,0,1,0.5,15
39,2021-12-27T00:38:00,2.1,西北西,4,西,-1.5,91.1,0,1,0.5,15
40,2021-12-27T00:39:00,2.2,西北西,4,西,-1.5,91.1,0,1,0.5,15
41,2021-12-27T00:40:00,2.1,西北西,4,西,-1.5,91.1,0,1,0.5,15
42,2021-12-27T00:41:00,2,西北西,4,西,-1.5,91.2,0,1,0.5,15
43,2021-12-27T00:42:00,2,西北西,3.4,西北西,-1.5,91.2,0,1,0.5,15
44,2021-12-27T00:43:00,1.9,西北西,3.1,西北西,-1.5,91.1,0,1,0.5,15
45,2021-12-27T00:44:00,1.8,西北西,2.7,西北西,-1.5,91.1,0,1,0.5,15
46,2021-12-27T00:45:00,1.8,西北西,2.7,西北西,-1.5,91.1,0,1,0.5,15
47,2021-12-27T00:46:00,1.9,西北西,3.1,西北西,-1.5,91.1,0.5,1.5,1,15.5
48,2021-12-27T00:47:00,1.8,西北西,3.1,西北西,-1.5,91.1,0.5,1.5,1,15.5
49,2021-12-27T00:48:00,1.8,西北西,3.1,西北西,-1.5,91.1,0.5,1.5,1,15.5
50,2021-12-27T00:49:00,1.8,西北西,3.1,西北西,-1.5,91,0.5,1.5,1,15.5
51,2021-12-27T00:50:00,1.8,西北西,3.1,西北西,-1.5,91,0.5,1.5,1,15.5
52,2021-12-27T00:51:00,1.9,北西,3.1,西北西,-1.4,91,0.5,1.5,1,15.5
53,2021-12-27T00:52:00,1.8,北西,3.1,西北西,-1.4,90.9,0.5,1,1,15.5
54,2021-12-27T00:53:00,1.8,北西,3.1,西北西,-1.4,90.8,0.5,1,1,15.5
55,2021-12-27T00:54:00,1.8,北北西,3.1,西北西,-1.4,90.6,0.5,1,1,15.5
56,2021-12-27T00:55:00,1.8,北北西,3.1,西北西,-1.4,90.4,0.5,1,1,15.5
57,2021-12-27T00:56:00,1.6,北,3,北北西,-1.4,90.3,0,1,1,15.5
58,2021-12-27T00:57:00,1.5,北北東,3,北北西,-1.3,89.9,0,1,1,15.5
59,2021-12-27T00:58:00,1.3,北北東,3,北北西,-1.3,89.8,0,1,1,15.5
60,2021-12-27T00:59:00,1.1,北北東,3,北北西,-1.4,89.6,0,1,1,15.5
61,2021-12-27T01:00:00,0.9,北北東,3,北北西,-1.4,89.3,0,1,1,15.5
62,2021-12-27T01:01:00,0.7,北北東,2.2,北東,-1.4,89,0,1,1,15.5
63,2021-12-27T01:02:00,0.5,北北東,2.2,北東,-1.3,88.9,0,1,1,15.5
64,2021-12-27T01:03:00,0.3,北東,1.8,東北東,-1.3,88.9,0,1,1,15.5
65,2021-12-27T01:04:00,0.2,静穏,1.8,東北東,-1.4,88.7,0,1,1,15.5
66,2021-12-27T01:05:00,0.1,静穏,1.2,東北東,-1.4,88.6,0,1,1,15.5
67,2021-12-27T01:06:00,0,静穏,0.9,東北東,-1.4,88.6,0,1,1,15.5
68,2021-12-27T01:07:00,0,静穏,0.1,西北西,-1.4,88.5,0,1,1,15.5
69,2021-12-27T01:08:00,0,静穏,0,南南東,-1.4,88.5,0,1,1,15.5
70,2021-12-27T01:09:00,0,静穏,0,南南東,-1.4,88.5,0,1,1,15.5
71,2021-12-27T01:10:00,0,静穏,0,南南東,-1.4,88.7,0,0.5,1,15.5
72,2021-12-27T01:11:00,0,静穏,0,南南東,-1.4,88.7,0,0.5,1,15.5
73,2021-12-27T01:12:00,0,静穏,0.1,東北東,-1.4,88.8,0,0.5,1,15.5
74,2021-12-27T01:13:00,0,静穏,0.1,東北東,-1.4,88.8,0,0.5,1,15.5
75,2021-12-27T01:14:00,0,静穏,0.1,東北東,-1.4,89,0,0.5,1,15.5
76,2021-12-27T01:15:00,0,静穏,0.1,東北東,-1.5,88.9,0,0.5,1,15.5
77,2021-12-27T01:16:00,0,静穏,0.1,東北東,-1.5,88.8,0,0.5,1,15.5
78,2021-12-27T01:17:00,0,静穏,0.1,東北東,-1.5,88.8,0,0.5,1,15.5
79,2021-12-27T01:18:00,0,静穏,0.1,東北東,-1.6,88.8,0.5,1,1.5,16
80,2021-12-27T01:19:00,0,静穏,0.1,東北東,-1.6,88.9,0.5,1,1.5,16
81,2021-12-27T01:20:00,0,静穏,0.1,東北東,-1.7,89,0.5,1,1.5,16
82,2021-12-27T01:21:00,0,静穏,0.2,南東,-1.7,89.1,0.5,1,1.5,16
83,2021-12-27T01:22:00,0,静穏,0.2,南東,-1.7,89.3,0.5,1,1.5,16
84,2021-12-27T01:23:00,0.1,静穏,1.9,南南東,-1.7,89.5,0.5,1,1.5,16
85,2021-12-27T01:24:00,0.3,南東,2.3,南東,-1.7,89.7,0.5,1,1.5,16
86,2021-12-27T01:25:00,0.6,南東,2.5,南東,-1.7,89.8,0.5,1,1.5,16
87,2021-12-27T01:26:00,0.7,南東,2.6,南東,-1.7,89.9,0.5,1,1.5,16
88,2021-12-27T01:27:00,1,南東,2.7,南東,-1.7,90.1,0.5,1,1.5,16
89,2021-12-27T01:28:00,1.1,南東,2.7,南東,-1.8,90.2,0,1,1.5,16
90,2021-12-27T01:29:00,1.3,南東,2.7,南東,-1.8,90.3,0,1,1.5,16
91,2021-12-27T01:30:00,1.6,南東,2.7,南東,-1.7,90.5,0,1,1.5,16
92,2021-12-27T01:31:00,1.8,南東,2.7,南東,-1.8,90.6,0,1,1.5,16
93,2021-12-27T01:32:00,2,南東,2.7,南東,-1.8,90.6,0,1,1.5,16
94,2021-12-27T01:33:00,2.1,南東,2.7,南東,-1.7,90.7,0,1,1.5,16
95,2021-12-27T01:34:00,2,南東,2.7,南東,-1.7,90.8,0,1,1.5,16
96,2021-12-27T01:35:00,2,南東,2.7,南東,-1.8,90.8,0,1,1.5,16
97,2021-12-27T01:36:00,1.9,南南東,2.7,南東,-1.7,90.9,0,1,1.5,16
98,2021-12-27T01:37:00,1.7,南南東,2.7,南東,-1.7,91,0,1,1.5,16
99,2021-12-27T01:38:00,1.7,南南東,2.7,南東,-1.8,91,0,1,1.5,16
100,2021-12-27T01:39:00,1.6,南南東,2.7,南東,-1.7,91.1,0,1,1.5,16
101,2021-12-27T01:40:00,1.5,南南東,2.7,南東,-1.7,91.2,0,1,1.5,16
102,2021-12-27T01:41:00,1.4,南南東,2.7,南東,-1.7,91.1,0,1,1.5,16
103,2021-12-27T01:42:00,1.2,南南東,2.6,南南東,-1.7,91.1,0,1,1.5,16
104,2021-12-27T01:43:00,1,南南東,2.4,南東,-1.7,91,0,1,1.5,16
105,2021-12-27T01:44:00,0.8,南南東,2.4,南東,-1.8,91.1,0,1,1.5,16
106,2021-12-27T01:45:00,0.6,南南東,1.8,南東,-1.6,91.2,0,1,1.5,16
107,2021-12-27T01:46:00,0.5,南南東,1.8,南東,-1.7,91.3,0,0.5,1.5,16
108,2021-12-27T01:47:00,0.5,南南東,1.8,南東,-1.7,91.2,0,0.5,1.5,16
109,2021-12-27T01:48:00,0.4,南南東,1.8,南東,-1.7,91.2,0,0.5,1.5,16
110,2021-12-27T01:49:00,0.3,南南東,1.8,南東,-1.6,91.3,0,0.5,1.5,16
111,2021-12-27T01:50:00,0.2,静穏,1.5,南東,-1.6,91.2,0,0.5,1.5,16
112,2021-12-27T01:51:00,0.1,静穏,1.1,南,-1.7,91.2,0,0.5,1.5,16
113,2021-12-27T01:52:00,0,静穏,0.1,東,-1.7,91.1,0,0.5,1.5,16
114,2021-12-27T01:53:00,0,静穏,0.2,東,-1.7,91,0,0.5,1.5,16
115,2021-12-27T01:54:00,0,静穏,0.2,東,-1.6,91.1,0,0.5,1.5,16
116,2021-12-27T01:55:00,0,静穏,0.2,東,-1.7,91,0,0.5,1.5,16
117,2021-12-27T01:56:00,0,静穏,0.2,東,-1.8,90.8,0,0.5,1.5,16
118,2021-12-27T01:57:00,0,静穏,0.2,東,-1.8,90.7,0,0.5,1.5,16
119,2021-12-27T01:58:00,0,静穏,0.2,東,-1.9,90.8,0,0.5,1.5,16
120,2021-12-27T01:59:00,0,静穏,0.2,東,-1.9,90.6,0,0.5,1.5,16
121,2021-12-27T02:00:00,0,静穏,0.2,東,-1.8,90.9,0,0.5,1.5,16
122,2021-12-27T02:01:00,0,静穏,0.2,東,-1.8,91.3,0,0.5,1.5,16
123,2021-12-27T02:02:00,0,静穏,0.2,東,-1.8,91.5,0,0.5,1.5,16
124,2021-12-27T02:03:00,0.2,静穏,1.8,南南東,-1.7,91.7,0,0.5,1.5,16
125,2021-12-27T02:04:00,0.2,静穏,1.8,南南東,-1.7,91.7,0,0.5,1.5,16
126,2021-12-27T02:05:00,0.2,静穏,1.8,南南東,-1.8,91.6,0,0.5,1.5,16
127,2021-12-27T02:06:00,0.2,静穏,1.8,南南東,-2.1,90.8,0,0.5,1.5,16
128,2021-12-27T02:07:00,0.2,静穏,1.8,南南東,-2.1,90.6,0,0.5,1.5,16
129,2021-12-27T02:08:00,0.2,静穏,1.8,南南東,-2.1,90.8,0,0.5,1.5,16
130,2021-12-27T02:09:00,0.2,静穏,1.8,南南東,-2.1,91.1,0,0.5,1.5,16
131,2021-12-27T02:10:00,0.2,静穏,1.8,南南東,-2,91.5,0,0.5,1.5,16
132,2021-12-27T02:11:00,0.2,静穏,1.8,南南東,-2,91.8,0,0.5,1.5,16
133,2021-12-27T02:12:00,0.2,静穏,1.8,南南東,-1.8,91.8,0,0.5,1.5,16
134,2021-12-27T02:13:00,0,静穏,0.8,南南東,-1.5,92.3,0,0.5,1.5,16
135,2021-12-27T02:14:00,0,静穏,0.2,南南西,-1.4,92.7,0,0.5,1.5,16
136,2021-12-27T02:15:00,0,静穏,0.2,南南西,-1.4,92.6,0,0.5,1.5,16
137,2021-12-27T02:16:00,0,静穏,0.2,南南西,-1.5,92.2,0,0.5,1.5,16
138,2021-12-27T02:17:00,0,静穏,0.2,南南西,-1.6,91.3,0,0.5,1.5,16
139,2021-12-27T02:18:00,0,静穏,0.2,南南西,-1.7,90.6,0,0,1.5,16
140,2021-12-27T02:19:00,0,静穏,0.2,南南西,-1.9,89.8,0,0,1.5,16
141,2021-12-27T02:20:00,0.1,静穏,1.7,北北東,-1.9,89.3,0,0,1.5,16
142,2021-12-27T02:21:00,0.2,静穏,1.7,北北東,-1.8,89.5,0,0,1.5,16
143,2021-12-27T02:22:00,0.2,静穏,1.7,北北東,-1.6,89.8,0,0,1.5,16
144,2021-12-27T02:23:00,0.2,静穏,1.7,北北東,-1.6,90,0,0,1.5,16
145,2021-12-27T02:24:00,0.3,西,2.1,西南西,-1.6,89.8,0,0,1.5,16
146,2021-12-27T02:25:00,0.4,西北西,2.1,西南西,-1.7,89.3,0,0,1.5,16
147,2021-12-27T02:26:00,0.5,西北西,2.1,西南西,-1.8,88.8,0,0,1.5,16
148,2021-12-27T02:27:00,0.5,北西,2.1,西南西,-1.8,88.6,0,0,1.5,16
149,2021-12-27T02:28:00,0.5,北西,2.1,西南西,-1.7,88.9,0,0,1.5,16
150,2021-12-27T02:29:00,0.5,北西,2.1,西南西,-1.8,89,0,0,1.5,16
151,2021-12-27T02:30:00,0.5,西北西,2.1,西南西,-1.8,88.8,0,0,1.5,16
152,2021-12-27T02:31:00,0.6,南東,2.1,西南西,-1.9,88.8,0,0,1.5,16
153,2021-12-27T02:32:00,0.7,東南東,2.1,西南西,-1.9,88.9,0,0,1.5,16
154,2021-12-27T02:33:00,0.8,東,2.1,西南西,-1.9,89.2,0,0,1.5,16
155,2021-12-27T02:34:00,0.8,東,1.8,東,-1.9,89.5,0,0,1.5,16
156,2021-12-27T02:35:00,0.8,東,1.8,東,-1.9,89.5,0,0,1.5,16
157,2021-12-27T02:36:00,0.9,東,1.8,東,-1.9,89.7,0,0,1.5,16
158,2021-12-27T02:37:00,1,東,1.8,東,-1.9,89.9,0,0,1.5,16
159,2021-12-27T02:38:00,1.1,東,1.8,東,-1.9,90.2,0,0,1.5,16
160,2021-12-27T02:39:00,1.1,東,1.8,東,-1.9,90.3,0,0,1.5,16
161,2021-12-27T02:40:00,1,東,1.8,東,-1.9,90.5,0,0,1.5,16
162,2021-12-27T02:41:00,0.8,東,1.8,東,-1.9,90.7,0,0,1.5,16
163,2021-12-27T02:42:00,0.7,東南東,1.6,東,-1.9,90.8,0,0,1.5,16
164,2021-12-27T02:43:00,0.6,東南東,1.6,東,-1.9,90.9,0,0,1.5,16
165,2021-12-27T02:44:00,0.4,東南東,1.6,東,-1.9,91,0,0,1.5,16
166,2021-12-27T02:45:00,0.3,東南東,1.6,東,-1.9,91.1,0,0,1.5,16
167,2021-12-27T02:46:00,0.2,静穏,1.6,東,-1.9,91.3,0,0,1.5,16
168,2021-12-27T02:47:00,0.1,静穏,1.4,東,-2,91.2,0,0,1.5,16
169,2021-12-27T02:48:00,0,静穏,0.6,東,-2,91.2,0,0,1.5,16
170,2021-12-27T02:49:00,0,静穏,0.1,南東,-2,91.3,0,0,1.5,16
171,2021-12-27T02:50:00,0,静穏,0.1,南東,-2,91.4,0,0,1.5,16
172,2021-12-27T02:51:00,0,静穏,0,東南東,-2,91.5,0,0,1.5,16
173,2021-12-27T02:52:00,0,静穏,0,東南東,-2,91.6,0,0,1.5,16
174,2021-12-27T02:53:00,0,静穏,0,東南東,-2,91.7,0,0,1.5,16
175,2021-12-27T02:54:00,0,静穏,0,東南東,-2.1,91.9,0,0,1.5,16
176,2021-12-27T02:55:00,0,静穏,0,東南東,-2,91.9,0,0,1.5,16
177,2021-12-27T02:56:00,0,静穏,0,東南東,-2,92,0,0,1.5,16
178,2021-12-27T02:57:00,0,静穏,0,東南東,-2,92.2,0,0,1.5,16
179,2021-12-27T02:58:00,0,静穏,0,東南東,-2,92.3,0,0,1.5,16
180,2021-12-27T02:59:00,0,静穏,0,東南東,-2,92.3,0,0,1.5,16
181,2021-12-27T03:00:00,0,静穏,0,東南東,-2,92.4,0,0,1.5,16
182,2021-12-27T03:01:00,0,静穏,0,南東,-2,92.4,0.5,0.5,2,16.5
183,2021-12-27T03:02:00,0,静穏,0,南東,-2.1,92.4,0.5,0.5,2,16.5
184,2021-12-27T03:03:00,0,静穏,0,南東,-2.1,92.4,0.5,0.5,2,16.5
185,2021-12-27T03:04:00,0,静穏,0,南東,-2,92.5,0.5,0.5,2,16.5
186,2021-12-27T03:05:00,0,静穏,0,南東,-2,92.5,0.5,0.5,2,16.5
187,2021-12-27T03:06:00,0,静穏,0,南東,-2,92.6,0.5,0.5,2,16.5
188,2021-12-27T03:07:00,0,静穏,0,南東,-2,92.7,0.5,0.5,2,16.5
189,2021-12-27T03:08:00,0,静穏,0,南東,-2,92.8,0.5,0.5,2,16.5
190,2021-12-27T03:09:00,0,静穏,0,南東,-2,92.9,0.5,0.5,2,16.5
191,2021-12-27T03:10:00,0,静穏,0,南東,-2,92.9,0.5,0.5,2,16.5
192,2021-12-27T03:11:00,0,静穏,0,東南東,-2,92.9,0,0.5,2,16.5
193,2021-12-27T03:12:00,0,静穏,0,東南東,-2,92.9,0,0.5,2,16.5
194,2021-12-27T03:13:00,0,静穏,0,東南東,-2,93,0,0.5,2,16.5
195,2021-12-27T03:14:00,0,静穏,0,東南東,-2,92.9,0,0.5,2,16.5
196,2021-12-27T03:15:00,0,静穏,0,東南東,-2,93,0,0.5,2,16.5
197,2021-12-27T03:16:00,0,静穏,0,東南東,-1.9,93.1,0,0.5,2,16.5
198,2021-12-27T03:17:00,0,静穏,0,東南東,-2,93.1,0,0.5,2,16.5
199,2021-12-27T03:18:00,0,静穏,0,東南東,-2,93.1,0,0.5,2,16.5
200,2021-12-27T03:19:00,0,静穏,0,東南東,-2,93,0,0.5,2,16.5
201,2021-12-27T03:20:00,0,静穏,0,東南東,-2,93,0,0.5,2,16.5
202,2021-12-27T03:21:00,0,静穏,0,南東,-2,93.1,0,0.5,2,16.5
203,2021-12-27T03:22:00,0,静穏,0,南東,-2,93.1,0,0.5,2,16.5
204,2021-12-27T03:23:00,0,静穏,0,南東,-2,93.2,0,0.5,2,16.5
205,2021-12-27T03:24:00,0,静穏,0,南東,-2,93.1,0,0.5,2,16.5
206,2021-12-27T03:25:00,0,静穏,0,南東,-2,93.1,0,0.5,2,16.5
207,2021-12-27T03:26:00,0,静穏,0,南東,-2,93.1,0,0.5,2,16.5
208,2021-12-27T03:27:00,0,静穏,0,南東,-2,93.2,0,0.5,2,16.5
209,2021-12-27T03:28:00,0,静穏,0,南東,-2,93.3,0,0.5,2,16.5
210,2021-12-27T03:29:00,0,静穏,0,南東,-2.1,93.2,0,0.5,2,16.5
211,2021-12-27T03:30:00,0,静穏,0,南東,-2.1,93.2,0,0.5,2,16.5
212,2021-12-27T03:31:00,0,静穏,0,東南東,-2.1,93.3,0,0.5,2,16.5
213,2021-12-27T03:32:00,0,静穏,0,東南東,-2,93.4,0,0.5,2,16.5
214,2021-12-27T03:33:00,0,静穏,0,東南東,-2,93.5,0,0.5,2,16.5
215,2021-12-27T03:34:00,0,静穏,0,東南東,-2.1,93.4,0,0.5,2,16.5
216,2021-12-27T03:35:00,0,静穏,0,東南東,-2,93.5,0,0.5,2,16.5
217,2021-12-27T03:36:00,0,静穏,0,東南東,-2.1,93.5,0,0.5,2,16.5
218,2021-12-27T03:37:00,0,静穏,0,東南東,-2.1,93.5,0,0.5,2,16.5
219,2021-12-27T03:38:00,0,静穏,0,東南東,-2.1,93.5,0,0.5,2,16.5
220,2021-12-27T03:39:00,0,静穏,0,東南東,-2.1,93.5,0,0.5,2,16.5
221,2021-12-27T03:40:00,0,静穏,0,東南東,-2.1,93.6,0,0.5,2,16.5
222,2021-12-27T03:41:00,0,静穏,0,南南東,-2.1,93.6,0,0.5,2,16.5
223,2021-12-27T03:42:00,0,静穏,0,南南東,-2,93.7,0,0.5,2,16.5
224,2021-12-27T03:43:00,0,静穏,0,南南東,-2,93.8,0,0.5,2,16.5
225,2021-12-27T03:44:00,0,静穏,0,南南東,-2,93.7,0,0.5,2,16.5
226,2021-12-27T03:45:00,0,静穏,0,南南東,-2.1,93.7,0,0.5,2,16.5
227,2021-12-27T03:46:00,0,静穏,0,南南東,-2.1,93.6,0,0.5,2,16.5
228,2021-12-27T03:47:00,0,静穏,0,南南東,-2,93.8,0,0.5,2,16.5
229,2021-12-27T03:48:00,0,静穏,0,南南東,-2.1,93.7,0,0.5,2,16.5
230,2021-12-27T03:49:00,0,静穏,0,南南東,-2.1,93.6,0,0.5,2,16.5
231,2021-12-27T03:50:00,0,静穏,0,南南東,-2.1,93.5,0.5,1,2.5,17
232,2021-12-27T03:51:00,0,静穏,0,南東,-2.1,93.6,0.5,1,2.5,17
233,2021-12-27T03:52:00,0,静穏,0,南東,-2.2,93.6,0.5,1,2.5,17
234,2021-12-27T03:53:00,0,静穏,0,南東,-2.2,93.6,0.5,1,2.5,17
235,2021-12-27T03:54:00,0,静穏,0,南東,-2.2,93.6,0.5,1,2.5,17
236,2021-12-27T03:55:00,0,静穏,0,南東,-2.2,93.6,0.5,1,2.5,17
237,2021-12-27T03:56:00,0,静穏,0,南東,-2.2,93.7,0.5,1,2.5,17
238,2021-12-27T03:57:00,0,静穏,0,南東,-2.1,93.9,0.5,1,2.5,17
239,2021-12-27T03:58:00,0,静穏,0,南東,-2.1,94,0.5,1,2.5,17
240,2021-12-27T03:59:00,0,静穏,0,南東,-2.2,93.9,0.5,1,2.5,17
241,2021-12-27T04:00:00,0,静穏,0,南東,-2.2,93.8,0,1,2.5,17
242,2021-12-27T04:01:00,0,静穏,0,南東,-2.2,93.8,0,0.5,2.5,17
243,2021-12-27T04:02:00,0,静穏,0,南東,-2.2,93.8,0,0.5,2.5,17
244,2021-12-27T04:03:00,0,静穏,0,南東,-2.2,93.9,0,0.5,2.5,17
245,2021-12-27T04:04:00,0,静穏,0,南東,-2.2,93.9,0,0.5,2.5,17
246,2021-12-27T04:05:00,0,静穏,0,南東,-2.1,93.9,0,0.5,2.5,17
247,2021-12-27T04:06:00,0,静穏,0,南東,-2.1,94,0.5,1,3,17.5
248,2021-12-27T04:07:00,0,静穏,0,南東,-2.1,93.9,0.5,1,3,17.5
249,2021-12-27T04:08:00,0,静穏,0,南東,-2.1,93.9,0.5,1,3,17.5
250,2021-12-27T04:09:00,0,静穏,0,南東,-2.2,93.9,0.5,1,3,17.5
251,2021-12-27T04:10:00,0,静穏,0,南東,-2.1,93.9,0.5,1,3,17.5
252,2021-12-27T04:11:00,0,静穏,0,南東,-2.2,93.8,0.5,1,3,17.5
253,2021-12-27T04:12:00,0,静穏,0,南東,-2.2,93.8,0.5,1,3,17.5
254,2021-12-27T04:13:00,0,静穏,0,南東,-2.1,93.9,0.5,1,3,17.5
255,2021-12-27T04:14:00,0,静穏,0,南東,-2.1,93.9,0.5,1,3,17.5
256,2021-12-27T04:15:00,0,静穏,0,南東,-2.2,93.8,0.5,1,3,17.5
257,2021-12-27T04:16:00,0,静穏,0,南東,-2.2,93.8,0,1,3,17.5
258,2021-12-27T04:17:00,0,静穏,0,南東,-2.2,93.8,0,1,3,17.5
259,2021-12-27T04:18:00,0,静穏,0,南東,-2.2,93.8,0,1,3,17.5
260,2021-12-27T04:19:00,0,静穏,0,南東,-2.2,93.8,0,1,3,17.5
261,2021-12-27T04:20:00,0,静穏,0,南東,-2.2,93.8,0,1,3,17.5
262,2021-12-27T04:21:00,0,静穏,0,南東,-2.2,93.7,0,1,3,17.5
263,2021-12-27T04:22:00,0,静穏,0,南東,-2.2,93.6,0,1,3,17.5
264,2021-12-27T04:23:00,0,静穏,0,南東,-2.2,93.5,0,1,3,17.5
265,2021-12-27T04:24:00,0,静穏,0,南東,-2.2,93.6,0,1,3,17.5
266,2021-12-27T04:25:00,0,静穏,0,南東,-2.2,93.6,0,1,3,17.5
267,2021-12-27T04:26:00,0,静穏,0,南東,-2.1,93.7,0,1,3,17.5
268,2021-12-27T04:27:00,0,静穏,0,南東,-2.1,93.6,0,1,3,17.5
269,2021-12-27T04:28:00,0,静穏,0,南東,-2.2,93.6,0,1,3,17.5
270,2021-12-27T04:29:00,0,静穏,0,南東,-2.1,93.5,0,1,3,17.5
271,2021-12-27T04:30:00,0,静穏,0,南東,-2.1,93.6,0,1,3,17.5
272,2021-12-27T04:31:00,0,静穏,0,南東,-2.2,93.5,0,1,3,17.5
273,2021-12-27T04:32:00,0,静穏,0,南東,-2.2,93.4,0,1,3,17.5
274,2021-12-27T04:33:00,0,静穏,0,南東,-2.2,93.4,0,1,3,17.5
275,2021-12-27T04:34:00,0,静穏,0,南東,-2.2,93.2,0,1,3,17.5
276,2021-12-27T04:35:00,0,静穏,0,南東,-2.2,93.2,0,1,3,17.5
277,2021-12-27T04:36:00,0,静穏,0,南東,-2.2,93.2,0,1,3,17.5
278,2021-12-27T04:37:00,0,静穏,0,南東,-2.2,93.2,0,1,3,17.5
279,2021-12-27T04:38:00,0,静穏,0,南東,-2.2,93.3,0,1,3,17.5
280,2021-12-27T04:39:00,0,静穏,0,南東,-2.2,93.2,0,1,3,17.5
281,2021-12-27T04:40:00,0,静穏,0,南東,-2.2,93.1,0,1,3,17.5
282,2021-12-27T04:41:00,0,静穏,0,南東,-2.2,93,0,1,3,17.5
283,2021-12-27T04:42:00,0,静穏,0,南東,-2.2,93,0.5,1.5,3.5,18
284,2021-12-27T04:43:00,0,静穏,0,南東,-2.2,92.9,0.5,1.5,3.5,18
285,2021-12-27T04:44:00,0,静穏,0,南東,-2.2,92.9,0.5,1.5,3.5,18
286,2021-12-27T04:45:00,0,静穏,0,南東,-2.3,92.9,0.5,1.5,3.5,18
287,2021-12-27T04:46:00,0,静穏,0,南東,-2.3,92.8,0.5,1.5,3.5,18
288,2021-12-27T04:47:00,0,静穏,0,南東,-2.3,92.8,0.5,1.5,3.5,18
289,2021-12-27T04:48:00,0,静穏,0,南東,-2.3,92.8,0.5,1.5,3.5,18
290,2021-12-27T04:49:00,0,静穏,0,南東,-2.3,92.9,0.5,1.5,3.5,18
291,2021-12-27T04:50:00,0,静穏,0,南東,-2.3,92.9,0.5,1,3.5,18
292,2021-12-27T04:51:00,0,静穏,0,南南東,-2.3,92.9,0.5,1,3.5,18
293,2021-12-27T04:52:00,0,静穏,0,南南東,-2.3,92.8,0,1,3.5,18
294,2021-12-27T04:53:00,0,静穏,0,南南東,-2.3,92.9,0,1,3.5,18
295,2021-12-27T04:54:00,0,静穏,0,南南東,-2.3,92.9,0,1,3.5,18
296,2021-12-27T04:55:00,0,静穏,0,南南東,-2.3,92.8,0,1,3.5,18
297,2021-12-27T04:56:00,0,静穏,0,南南東,-2.4,92.8,0,1,3.5,18
298,2021-12-27T04:57:00,0,静穏,0,南南東,-2.4,92.6,0,1,3.5,18
299,2021-12-27T04:58:00,0,静穏,0,南南東,-2.4,92.6,0,1,3.5,18
300,2021-12-27T04:59:00,0,静穏,0,南南東,-2.4,92.8,0,1,3.5,18
301,2021-12-27T05:00:00,0,静穏,0,南南東,-2.4,92.9,0,1,3.5,18
302,2021-12-27T05:01:00,0,静穏,0,南東,-2.4,93,0,1,3.5,18
303,2021-12-27T05:02:00,0,静穏,0,南東,-2.4,92.8,0,1,3.5,18
304,2021-12-27T05:03:00,0,静穏,0,南東,-2.4,92.9,0,1,3.5,18
305,2021-12-27T05:04:00,0,静穏,0,南東,-2.4,92.9,0,1,3.5,18
306,2021-12-27T05:05:00,0,静穏,0,南東,-2.4,92.9,0,1,3.5,18
307,2021-12-27T05:06:00,0,静穏,0,南東,-2.4,93,0,0.5,3.5,18
308,2021-12-27T05:07:00,0,静穏,0,南東,-2.4,92.9,0,0.5,3.5,18
309,2021-12-27T05:08:00,0,静穏,0,南東,-2.4,92.9,0,0.5,3.5,18
310,2021-12-27T05:09:00,0,静穏,0,南東,-2.4,93.1,0,0.5,3.5,18
311,2021-12-27T05:10:00,0,静穏,0,南東,-2.4,93,0,0.5,3.5,18
312,2021-12-27T05:11:00,0,静穏,0,南東,-2.4,93.1,0,0.5,3.5,18
313,2021-12-27T05:12:00,0,静穏,0,南東,-2.3,93,0,0.5,3.5,18
314,2021-12-27T05:13:00,0,静穏,0,南東,-2.4,93,0,0.5,3.5,18
315,2021-12-27T05:14:00,0,静穏,0,南東,-2.4,92.8,0,0.5,3.5,18
316,2021-12-27T05:15:00,0,静穏,0,南東,-2.4,92.9,0,0.5,3.5,18
317,2021-12-27T05:16:00,0,静穏,0,南東,-2.3,92.9,0,0.5,3.5,18
318,2021-12-27T05:17:00,0,静穏,0,南東,-2.4,93,0,0.5,3.5,18
319,2021-12-27T05:18:00,0,静穏,0,南東,-2.3,92.9,0,0.5,3.5,18
320,2021-12-27T05:19:00,0,静穏,0,南東,-2.3,92.9,0,0.5,3.5,18
321,2021-12-27T05:20:00,0,静穏,0,南東,-2.3,92.9,0,0.5,3.5,18
322,2021-12-27T05:21:00,0,静穏,0,南東,-2.3,92.9,0,0.5,3.5,18
323,2021-12-27T05:22:00,0,静穏,0,南東,-2.3,92.8,0,0.5,3.5,18
324,2021-12-27T05:23:00,0,静穏,0,南東,-2.3,92.7,0.5,1,4,18.5
325,2021-12-27T05:24:00,0,静穏,0,南東,-2.4,92.6,0.5,1,4,18.5
326,2021-12-27T05:25:00,0,静穏,0,南東,-2.3,92.5,0.5,1,4,18.5
327,2021-12-27T05:26:00,0,静穏,0,南東,-2.3,92.4,0.5,1,4,18.5
328,2021-12-27T05:27:00,0,静穏,0,南東,-2.3,92.3,0.5,1,4,18.5
329,2021-12-27T05:28:00,0,静穏,0,南東,-2.3,92.3,0.5,1,4,18.5
330,2021-12-27T05:29:00,0,静穏,0,南東,-2.3,92.2,0.5,1,4,18.5
331,2021-12-27T05:30:00,0,静穏,0,南東,-2.3,92.1,0.5,1,4,18.5
332,2021-12-27T05:31:00,0,静穏,0,南東,-2.3,91.9,0.5,1,4,18.5
333,2021-12-27T05:32:00,0,静穏,0,南東,-2.3,91.9,0.5,1,4,18.5
334,2021-12-27T05:33:00,0,静穏,0,南東,-2.4,91.9,0,1,4,18.5
335,2021-12-27T05:34:00,0,静穏,0,南東,-2.3,91.7,0,1,4,18.5
336,2021-12-27T05:35:00,0,静穏,0,南東,-2.3,91.7,0,1,4,18.5
337,2021-12-27T05:36:00,0,静穏,0,南東,-2.3,91.6,0,1,4,18.5
338,2021-12-27T05:37:00,0,静穏,0,南東,-2.2,91.6,0,1,4,18.5
339,2021-12-27T05:38:00,0,静穏,0,南東,-2.3,91.5,0,1,4,18.5
340,2021-12-27T05:39:00,0,静穏,0,南東,-2.3,91.4,0,1,4,18.5
341,2021-12-27T05:40:00,0,静穏,0,南東,-2.2,91.4,0,1,4,18.5
342,2021-12-27T05:41:00,0,静穏,0,東南東,-2.2,91.3,0,1,4,18.5
343,2021-12-27T05:42:00,0,静穏,0,東南東,-2.2,91.2,0,0.5,4,18.5
344,2021-12-27T05:43:00,0,静穏,0,東南東,-2.2,91.1,0,0.5,4,18.5
345,2021-12-27T05:44:00,0,静穏,0,東南東,-2.2,91.1,0,0.5,4,18.5
346,2021-12-27T05:45:00,0,静穏,0,東南東,-2.2,91,0,0.5,4,18.5
347,2021-12-27T05:46:00,0,静穏,0,東南東,-2.2,90.8,0,0.5,4,18.5
348,2021-12-27T05:47:00,0,静穏,0,東南東,-2.2,90.6,0,0.5,4,18.5
349,2021-12-27T05:48:00,0,静穏,0,東南東,-2.2,90.5,0,0.5,4,18.5
350,2021-12-27T05:49:00,0,静穏,0,東南東,-2.3,90.3,0,0.5,4,18.5
351,2021-12-27T05:50:00,0,静穏,0,東南東,-2.2,90.1,0,0.5,4,18.5
352,2021-12-27T05:51:00,0,静穏,0,東南東,-2.3,90,0,0.5,4,18.5
353,2021-12-27T05:52:00,0,静穏,0,東南東,-2.3,89.7,0,0.5,4,18.5
354,2021-12-27T05:53:00,0,静穏,0,東南東,-2.4,89.3,0,0.5,4,18.5
355,2021-12-27T05:54:00,0,静穏,0,東南東,-2.4,89.2,0,0.5,4,18.5
356,2021-12-27T05:55:00,0,静穏,0,東南東,-2.4,89,0,0.5,4,18.5
357,2021-12-27T05:56:00,0,静穏,0,東南東,-2.4,89,0,0.5,4,18.5
358,2021-12-27T05:57:00,0,静穏,0,東南東,-2.4,89.1,0,0.5,4,18.5
359,2021-12-27T05:58:00,0,静穏,0,東南東,-2.4,89.2,0,0.5,4,18.5
360,2021-12-27T05:59:00,0,静穏,0,東南東,-2.3,89.3,0,0.5,4,18.5
361,2021-12-27T06:00:00,0,静穏,0,東南東,-2.3,89.3,0,0.5,4,18.5
362,2021-12-27T06:01:00,0,静穏,0,東北東,-2.3,89.2,0,0.5,4,18.5
363,2021-12-27T06:02:00,0,静穏,0,東北東,-2.3,89.2,0,0.5,4,18.5
364,2021-12-27T06:03:00,0,静穏,0,東北東,-2.1,89.3,0,0.5,4,18.5
365,2021-12-27T06:04:00,0,静穏,0,東北東,-2,89.4,0,0.5,4,18.5
366,2021-12-27T06:05:00,0,静穏,0,東北東,-2,89.2,0,0.5,4,18.5
367,2021-12-27T06:06:00,0,静穏,0,東北東,-2,88.6,0,0.5,4,18.5
368,2021-12-27T06:07:00,0,静穏,0,東北東,-2,88.1,0,0.5,4,18.5
369,2021-12-27T06:08:00,0,静穏,0,東北東,-2,87.6,0,0.5,4,18.5
370,2021-12-27T06:09:00,0,静穏,0,東北東,-2.1,86.9,0,0.5,4,18.5
371,2021-12-27T06:10:00,0,静穏,0,東北東,-2.1,86.4,0,0.5,4,18.5
372,2021-12-27T06:11:00,0,静穏,0,東,-2.2,86,0,0.5,4,18.5
373,2021-12-27T06:12:00,0,静穏,0,東,-2.3,86,0,0.5,4,18.5
374,2021-12-27T06:13:00,0,静穏,0,東,-2.4,86.1,0,0.5,4,18.5
375,2021-12-27T06:14:00,0,静穏,0,東,-2.4,86.4,0,0.5,4,18.5
376,2021-12-27T06:15:00,0,静穏,0,東,-2.3,86.8,0,0.5,4,18.5
377,2021-12-27T06:16:00,0,静穏,0,東,-2.4,87.1,0,0.5,4,18.5
378,2021-12-27T06:17:00,0,静穏,0,東,-2.4,87.1,0,0.5,4,18.5
379,2021-12-27T06:18:00,0,静穏,0,東,-2.5,87.2,0,0.5,4,18.5
380,2021-12-27T06:19:00,0,静穏,0,東,-2.5,87.4,0,0.5,4,18.5
381,2021-12-27T06:20:00,0,静穏,0,東,-2.6,87.6,0,0.5,4,18.5
382,2021-12-27T06:21:00,0,静穏,0,東,-2.6,87.8,0,0.5,4,18.5
383,2021-12-27T06:22:00,0,静穏,0,東,-2.6,88.1,0,0.5,4,18.5
384,2021-12-27T06:23:00,0,静穏,0,東,-2.6,88.2,0,0,4,18.5
385,2021-12-27T06:24:00,0,静穏,0,東,-2.6,88.3,0,0,4,18.5
386,2021-12-27T06:25:00,0,静穏,0,東,-2.6,88.5,0,0,4,18.5
387,2021-12-27T06:26:00,0,静穏,0,東,-2.6,88.7,0,0,4,18.5
388,2021-12-27T06:27:00,0,静穏,0,東,-2.6,88.7,0,0,4,18.5
389,2021-12-27T06:28:00,0,静穏,0,東,-2.7,88.8,0,0,4,18.5
390,2021-12-27T06:29:00,0,静穏,0,東,-2.6,89,0,0,4,18.5
391,2021-12-27T06:30:00,0,静穏,0,東,-2.6,89.2,0,0,4,18.5
392,2021-12-27T06:31:00,0,静穏,0,南南東,-2.6,89.2,0,0,4,18.5
393,2021-12-27T06:32:00,0,静穏,0,南南東,-2.6,89.2,0,0,4,18.5
394,2021-12-27T06:33:00,0,静穏,0,南南東,-2.8,88.8,0,0,4,18.5
395,2021-12-27T06:34:00,0,静穏,0,南南東,-2.8,88.8,0,0,4,18.5
396,2021-12-27T06:35:00,0,静穏,0,南南東,-2.8,89,0,0,4,18.5
397,2021-12-27T06:36:00,0,静穏,0,南南東,-2.8,89.1,0,0,4,18.5
398,2021-12-27T06:37:00,0,静穏,0,南南東,-2.7,89.3,0,0,4,18.5
399,2021-12-27T06:38:00,0,静穏,0,南南東,-2.7,89.6,0,0,4,18.5
400,2021-12-27T06:39:00,0,静穏,0,南南東,-2.7,89.8,0,0,4,18.5
401,2021-12-27T06:40:00,0,静穏,0,南南東,-2.7,89.8,0,0,4,18.5
402,2021-12-27T06:41:00,0,静穏,0,南,-2.7,89.9,0,0,4,18.5
403,2021-12-27T06:42:00,0,静穏,0,南,-2.7,89.8,0,0,4,18.5
404,2021-12-27T06:43:00,0,静穏,0,南,-2.7,89.8,0,0,4,18.5
405,2021-12-27T06:44:00,0,静穏,0,南,-2.6,90,0,0,4,18.5
406,2021-12-27T06:45:00,0,静穏,0,南,-2.7,90,0,0,4,18.5
407,2021-12-27T06:46:00,0,静穏,0,南,-2.7,89.9,0,0,4,18.5
408,2021-12-27T06:47:00,0,静穏,0,南,-2.8,89.7,0,0,4,18.5
409,2021-12-27T06:48:00,0,静穏,0,南,-2.9,89.5,0,0,4,18.5
410,2021-12-27T06:49:00,0,静穏,0,南,-2.9,89.6,0,0,4,18.5
411,2021-12-27T06:50:00,0,静穏,0,南,-2.9,89.6,0,0,4,18.5
412,2021-12-27T06:51:00,0,静穏,0,南南東,-2.9,89.9,0,0,4,18.5
413,2021-12-27T06:52:00,0,静穏,0,南南東,-2.8,90.2,0,0,4,18.5
414,2021-12-27T06:53:00,0,静穏,0,南南東,-2.9,90.2,0,0,4,18.5
415,2021-12-27T06:54:00,0,静穏,0,南南東,-2.9,90.4,0,0,4,18.5
416,2021-12-27T06:55:00,0,静穏,0,南南東,-2.8,90.5,0,0,4,18.5
417,2021-12-27T06:56:00,0,静穏,0,南南東,-2.9,90.6,0,0,4,18.5